Погода в Новом Чиркее

Россия / Республика Дагестан     43°09′39″N   47°03′13″E
темп.,
°C
ветер,
м/с
пор.,
м/с
влажн.,
%
обл.,
%
осадки,
мм/ч
давл.,
гПа
погр.,
м
26 июня, вс
вс2600:00+20сз1172100 0.0 100825
03:00+21с2373100 0.1 100664
06:00+21зсз3575100 0.0 1007186
09:00+26зсз3346100 0.0 1006884
12:00+30з4438100 0.0 10051582
15:00+33з4432100 0.0 10042080
18:00+30з454076 0.0 1004937
21:00+22з4978100 1.1 1007195
27 июня, пн
пн2700:00+22з81377100 0.2 1007475
03:00+21зсз714780 0.2 1007464
06:00+22з813690 0.0 1008599
09:00+28зсз910460 0.0 10081131
12:00+33зсз88360 0.0 10071792
15:00+32с774463 0.0 10071466
18:00+29ссз564793 0.0 1007858
21:00+24ссз4861100 0.0 1009269
28 июня, вт
вт2800:00+21зсз6874100 0.0 1010290
03:00+20зсз6107889 0.0 1009267
06:00+22зсз710660 0.0 1010468
09:00+27сз88450 0.0 10091453
12:00+32ссз77300 0.0 10092184
15:00+31с87298 0.0 10092213
18:00+29ссв662894 0.0 10101236
21:00+22зюз00412 0.0 101314
29 июня, ср
ср2900:00+21зюз22410 0.0 101215
03:00+20з224495 0.0 101215
06:00+22сз234395 0.0 1013133
09:00+29св122595 0.0 1013995
12:00+32в542517 0.0 10122214
15:00+30в864292 0.0 10121784
18:00+24в776438 0.0 1014876
21:00+20в588185 0.0 1014360
30 июня, чт
чт3000:00+19в488489 0.0 1014255
03:00+19вюв4881100 0.0 1014263
06:00+21вюв576212 0.0 1015629
09:00+26в66395 0.0 10141216
12:00+28в76310 0.0 10131562
15:00+27в76325 0.0 10141582
18:00+24в554125 0.0 10151082
21:00+20юв35585 0.0 1016122